Content
SEND FEEDBACK

Daily
Averages
Monthly
Summary
United States of America

ST. LOUIS - SAINT LOUIS UNIVERSITY, MISSOURI


Home > North America > United States > Missouri
Elevation: 580 feet     Latitude: 38 38N     Longitude: 090 14W

WEATHER
 
SELECT A DAY
Number of Records: 185,881;   Date Range: 1/1/95 - 7/7/14
 
SHARE

PRINT THIS DATA

[ ← Previous Day ]
WEATHER ALMANAC - APRIL 30, 2013
[ Next Day → ]
[ °C ]   °F
Weather ElementAverageHighLow
Temperature72 °F84.9 °F (2:53 pm)59 °F (4:53 am)
Dewpoint56.9 °F60.1 °F (12:53 pm)54 °F (2:53 pm)
Humidity61.8 %90 % (4:53 am)34 % (2:53 pm)
Barometer29.87 in29.95 in (10:53 pm)29.81 in (2:53 am)
Wind Speed9 mph18.4 mph (5:53 pm)
Wind Gust26.5 mph (5:53 pm)
Weather ElementAverage
Visibility10 mi
Wind DirectionSSE (160.5 °)

Weather ElementTotal
Precipitation---
Cooling Degree Days7 (Base 65)
Growing Degree Days22 (Base 50)
Averaged from 22 records on April 30, 2013
WEATHER CONDITIONS BREAKOUT
WIND DIRECTION BREAKOUT
WEATHER BY HOUR - APRIL 30, 2013
[ °C ]   °F
Local TimeTemperatureDewpointHumidityBarometerVisibilityWind DirectionWind SpeedGust SpeedPrecipitationEventsConditions
1:53 AM62.1 °F57.9 °F86 %29.82 in10.0 miSSE (160°)4.6 mphClear
2:53 AM61.0 °F57.0 °F87 %29.81 in10.0 miSSE (150°)4.6 mphClear
3:53 AM60.1 °F55.9 °F86 %29.82 in10.0 miSSE (160°)5.8 mphClear
4:53 AM59.0 °F55.9 °F90 %29.82 in10.0 miSSE (160°)5.8 mphClear
5:53 AM59.0 °F55.0 °F87 %29.84 in10.0 miSSE (160°)4.6 mphClear
6:53 AM60.1 °F55.0 °F83 %29.86 in10.0 miSSE (150°)3.5 mphClear
7:53 AM64.0 °F57.0 °F78 %29.88 in10.0 miSSE (160°)5.8 mphClear
8:53 AM70.0 °F57.9 °F65 %29.89 in10.0 miSW (220°)6.9 mphClear
9:53 AM73.9 °F57.9 °F57 %29.89 in10.0 miSouth (180°)9.2 mphClear
10:53 AM75.9 °F57.9 °F54 %29.89 in10.0 miSouth (170°)6.9 mph16.1 mphClear
11:53 AM80.1 °F59.0 °F48 %29.88 in10.0 miSouth (170°)6.9 mphClear
12:53 PM82.9 °F60.1 °F46 %29.86 in10.0 miSSE (150°)9.2 mphClear
1:53 PM84.0 °F60.1 °F44 %29.85 in10.0 miSSE (150°)12.7 mph18.4 mphClear
2:53 PM84.9 °F54.0 °F34 %29.85 in10.0 miSouth (170°)11.5 mph18.4 mphClear
3:53 PM84.0 °F57.9 °F41 %29.84 in10.0 miSE (140°)17.3 mph23.0 mphClear
4:53 PM82.9 °F57.9 °F42 %29.84 in10.0 miSSE (160°)15.0 mph24.2 mphClear
5:53 PM81.0 °F57.0 °F44 %29.85 in10.0 miSSE (150°)18.4 mph26.5 mphClear
6:53 PM78.1 °F55.9 °F46 %29.86 in10.0 miSSE (150°)16.1 mph23.0 mphClear
7:53 PM73.9 °F55.9 °F53 %29.89 in10.0 miSSE (150°)13.8 mphClear
8:53 PM72.0 °F57.0 °F59 %29.91 in10.0 miSSE (160°)8.1 mphClear
10:53 PM70.0 °F55.0 °F59 %29.95 in10.0 miSSE (160°)6.9 mphClear
11:53 PM64.9 °F55.0 °F70 %29.95 in10.0 miSSE (150°)3.5 mphClear
Hourly data recorded from KCPS, located miles away from St. Louis - Saint Louis University, Missouri







STORIES FROM OUR PARTNERS